Theta_e
308 308 308 308 308 307 307 309 309 309 309 309 308 309 307 304 303 313 317 315 315 314 314 326 329 328 326 326 325 328 331 334 334 333 332 332 332 331 331 332 331 331 331 331 331
308 308 308 308 308 308 308 308 308 309 309 310 309 303 302 304 311 313 314 314 312 311 314 321 327 326 330 330 328 329 333 334 333 333 332 332 332 332 332 332 331 331 331 331 331
306 307 307 307 308 308 308 307 308 308 308 308 308 307 301 307 314 314 316 314 311 309 312 317 324 326 327 330 330 330 333 334 334 333 333 333 333 332 332 333 332 331 331 331 331
305 306 306 306 306 306 307 307 307 308 308 307 307 308 303 311 314 320 311 309 311 315 312 313 318 326 326 327 330 333 333 333 333 333 332 333 333 333 333 333 332 331 331 331 331
304 304 305 306 306 306 305 304 305 306 306 307 307 307 308 312 314 314 311 314 315 320 321 317 318 322 328 326 328 330 330 330 331 331 331 331 332 332 333 332 332 331 331 331 330
304 304 305 306 306 306 305 305 304 303 303 307 308 308 310 310 310 311 312 312 314 316 322 319 320 323 326 328 328 328 329 329 329 329 329 330 332 331 332 332 332 330 330 330 330
304 304 305 305 306 305 306 306 304 302 302 307 308 309 310 310 308 309 310 311 312 314 316 321 320 322 325 328 328 329 330 330 330 329 329 329 330 331 330 330 330 330 329 329 329
304 304 304 305 306 306 305 303 302 302 303 308 309 309 311 307 306 307 308 309 310 311 313 315 319 322 323 324 326 327 329 331 330 329 329 329 331 330 330 330 331 329 328 328 328
305 305 304 305 305 305 303 301 304 305 306 309 310 310 311 308 309 309 308 309 310 312 313 313 315 318 321 322 326 328 330 331 330 329 329 329 331 330 330 330 330 330 329 328 329
305 304 304 304 304 303 303 303 306 306 309 310 310 311 311 308 307 310 311 311 313 313 315 315 315 316 319 322 327 327 328 328 329 328 328 329 330 329 329 327 328 329 329 328 328
304 303 304 304 304 303 304 308 310 312 312 312 309 310 309 308 307 307 308 310 313 314 316 317 316 316 318 320 323 324 325 327 328 328 328 328 329 329 328 327 328 329 329 328 328
303 301 301 302 301 303 306 308 308 307 310 308 308 308 307 307 307 308 307 309 312 316 314 317 318 318 317 319 321 322 324 326 327 327 328 329 329 329 328 328 328 328 329 329 329
303 303 303 302 301 307 307 307 306 307 309 308 308 308 309 309 309 309 309 308 309 315 316 316 318 317 317 318 319 322 323 325 326 326 327 327 327 327 327 328 327 327 328 328 329
304 304 304 303 305 306 306 306 306 307 310 307 309 310 310 311 312 311 310 310 309 310 315 316 315 318 318 318 319 321 322 323 325 326 326 325 329 327 327 328 327 328 329 329 329
303 303 304 303 306 307 306 306 306 307 309 307 309 311 310 310 311 313 313 312 309 309 310 314 316 316 318 319 318 320 320 322 324 324 325 324 325 325 326 327 328 328 328 329 328
303 303 302 307 307 306 306 306 306 311 309 308 309 310 309 309 311 310 312 313 313 311 310 312 314 317 317 318 319 319 320 321 323 324 326 325 325 326 327 328 329 329 328 329 329
302 302 306 306 308 306 306 306 311 311 307 308 309 308 309 308 307 310 310 311 314 314 312 311 313 315 317 317 319 320 321 323 326 326 328 324 326 327 328 328 328 329 328 328 331
302 305 307 307 307 307 307 310 311 307 307 306 305 306 305 305 306 306 309 309 310 314 317 311 311 313 317 317 319 320 321 323 327 327 325 325 327 328 328 327 327 328 328 332 335
304 307 307 307 307 306 309 313 307 307 306 306 307 308 308 306 305 306 307 308 313 312 320 321 311 312 315 317 317 320 322 322 324 325 326 328 328 329 329 329 326 328 328 333 336
306 307 308 306 307 308 311 308 306 306 306 307 308 309 308 307 307 307 307 313 311 310 312 319 318 312 316 317 317 320 321 322 325 327 329 328 330 331 329 327 327 330 329 333 337
307 309 308 307 307 310 311 307 306 305 306 308 308 308 308 309 309 309 309 312 311 310 311 315 321 320 314 319 318 318 321 322 324 324 327 330 329 330 330 329 329 331 333 337 338
308 309 305 307 312 312 310 306 306 306 306 306 308 308 309 309 309 309 311 311 309 311 315 315 320 324 319 318 318 318 321 322 326 327 325 328 328 327 327 329 329 331 335 338 337
309 308 307 306 312 309 307 306 306 306 306 306 306 308 309 309 310 308 310 312 310 311 316 316 320 323 327 323 318 318 320 323 325 327 326 327 328 327 329 332 331 333 336 337 336
309 310 308 308 306 308 307 308 307 306 307 308 308 307 308 310 309 311 310 312 310 311 312 313 319 321 330 324 318 319 320 322 325 327 327 326 327 325 329 331 332 335 336 336 335
309 308 307 309 309 306 306 307 309 310 308 308 308 307 309 309 308 310 311 310 311 311 313 315 319 318 321 323 323 319 321 323 324 326 327 326 325 327 331 331 333 335 335 336 336
308 307 307 307 306 306 307 309 307 308 308 308 309 309 308 308 309 310 309 311 313 313 316 315 322 316 320 321 324 320 320 321 324 324 324 324 324 326 329 327 328 330 333 336 335
305 304 306 306 307 306 308 307 307 307 308 308 308 310 309 308 309 309 309 309 310 311 312 314 320 321 324 321 322 322 321 321 321 323 323 323 323 323 324 325 327 330 330 334 335
Wind_Speed
16 16 16 16 16 15 15 16 17 18 18 19 18 20 20 21 22 16 18 13 16 18 11 10 15 19 16 18 25 17 15 17 22 21 16 14 16 10 2 11 14 10 18 18 20
17 17 16 16 16 18 18 17 17 17 17 18 20 20 21 19 23 25 26 20 22 14 16 20 17 19 17 19 20 19 17 24 23 19 16 20 19 17 17 13 17 15 20 22 14
19 20 21 21 20 18 18 18 18 18 18 18 19 19 18 17 15 13 7 26 23 23 25 23 23 20 24 24 24 25 24 23 24 24 20 21 24 20 21 22 21 20 19 18 21
18 20 21 22 23 24 22 20 17 17 17 17 17 18 15 11 10 7 8 9 4 14 28 26 24 27 26 28 27 28 30 27 26 27 26 30 28 31 25 26 23 19 20 19 22
18 18 20 20 22 23 24 24 22 20 19 18 16 15 13 10 16 17 2 8 11 12 25 25 29 30 33 28 28 33 32 31 30 31 33 33 35 31 33 25 25 25 21 21 21
17 19 20 21 22 23 23 24 24 24 23 19 15 11 14 22 12 12 15 16 15 14 18 26 29 29 33 33 33 31 33 34 34 34 34 33 35 30 28 26 29 27 23 24 23
18 20 20 22 22 23 23 25 25 25 25 21 17 14 16 22 17 17 16 19 19 18 17 20 28 29 29 33 32 34 36 35 35 30 31 25 33 36 29 27 28 29 24 25 20
21 22 25 25 24 24 25 27 28 28 26 22 14 14 11 16 21 25 24 27 24 24 24 21 19 25 29 24 27 33 34 30 32 33 31 27 38 28 27 26 28 22 20 17 19
21 23 24 23 22 25 27 30 24 20 14 9 8 13 18 5 17 17 24 22 21 24 23 24 19 20 21 25 22 27 29 36 31 28 26 29 40 29 25 26 27 29 24 15 20
23 25 25 24 24 27 32 24 19 12 4 8 15 7 15 14 6 4 4 12 15 17 20 20 15 19 21 22 27 31 33 30 33 26 26 32 36 31 24 23 25 29 20 20 23
26 26 25 25 27 29 27 24 2 8 15 13 14 13 22 9 11 17 11 11 13 14 25 25 19 27 44 37 33 29 27 31 32 27 29 31 32 25 22 26 26 26 25 19 24
27 27 30 28 30 24 13 10 10 8 13 21 24 26 30 30 24 20 19 15 16 19 21 24 31 46 26 32 31 33 32 33 29 25 23 27 28 27 25 25 25 28 28 24 22
27 27 30 29 27 14 13 13 8 12 9 24 23 19 15 15 21 21 20 22 23 22 24 31 44 25 33 31 32 33 33 29 30 24 22 23 27 30 27 25 26 28 29 27 26
28 29 30 30 16 16 12 7 10 10 7 20 13 8 10 6 8 13 18 20 25 29 23 28 34 32 32 34 34 32 30 27 25 21 20 21 23 26 20 24 24 25 22 21 21
32 31 28 14 14 9 12 11 10 4 6 4 9 7 3 8 1 6 4 14 21 24 24 33 28 33 36 42 32 37 25 26 26 21 23 26 18 18 20 22 22 21 22 23 21
36 27 13 5 7 10 13 9 6 5 5 2 2 10 9 9 10 5 9 13 13 19 28 31 28 27 39 33 28 30 27 25 20 19 20 24 21 22 22 21 22 21 20 19 19
32 11 7 8 11 13 11 8 5 6 2 7 13 7 13 20 15 10 9 13 13 16 21 29 30 28 29 31 35 28 25 16 17 17 22 16 19 23 19 20 19 15 17 12 6
20 5 3 8 12 9 9 4 5 12 12 18 17 19 18 17 20 13 12 15 18 15 19 22 26 34 28 28 36 32 28 17 29 13 18 23 18 13 16 5 8 15 10 8 9
14 7 4 10 8 5 5 5 8 12 15 14 18 16 20 14 19 10 16 13 4 5 6 15 28 29 34 24 26 39 28 35 24 20 14 15 16 19 18 16 8 10 16 12 11
14 7 2 8 7 9 4 8 11 11 12 16 19 11 14 21 9 13 15 4 3 8 5 14 21 29 27 29 33 32 29 22 20 25 19 13 12 8 5 10 12 12 16 14 14
11 2 5 7 6 5 4 10 15 15 13 10 19 20 18 11 12 17 3 6 6 12 9 19 5 20 33 31 31 25 25 29 22 19 14 12 12 7 4 4 14 14 16 16 17
8 3 6 4 3 3 7 17 16 20 14 18 11 16 17 15 13 11 9 5 3 10 10 12 7 15 23 29 31 32 29 31 17 25 18 11 3 4 9 10 13 9 12 16 17
6 3 6 3 4 7 13 18 15 15 16 16 11 13 17 16 10 8 8 8 7 6 4 7 11 13 6 16 30 30 32 27 28 18 19 10 5 7 7 4 5 10 14 16 18
5 4 2 0 4 8 13 15 15 7 17 15 19 6 9 15 11 8 9 2 8 12 14 7 12 18 6 10 22 30 34 30 28 17 18 18 14 13 13 10 7 12 15 17 17
3 5 5 5 8 10 14 17 16 11 8 17 11 10 14 17 17 9 8 10 4 6 5 4 17 23 5 21 27 27 30 27 31 22 17 20 12 12 16 14 11 12 13 15 17
5 5 7 12 8 11 11 14 14 19 9 13 14 20 15 15 16 16 12 9 7 2 5 5 12 19 9 19 27 19 29 25 27 20 19 14 17 10 15 12 10 10 13 15 16
3 6 3 10 7 6 9 14 20 18 10 12 16 17 15 15 17 20 19 16 15 15 11 9 10 3 6 18 24 16 23 28 22 25 17 11 9 11 5 6 4 11 3 14 15
Wind_Direction
360 358 355 350 344 338 338 338 341 340 345 340 333 330 329 325 318 288 249 242 211 235 203 209 216 210 224 233 231 232 255 252 248 251 265 271 246 256 208 289 297 286 301 296 294
351 350 350 348 344 341 341 337 335 332 333 329 333 337 332 331 310 276 251 236 225 217 208 216 213 216 218 226 231 229 237 243 261 265 265 273 284 293 276 259 272 269 280 286 305
348 346 344 343 342 339 336 333 333 329 328 322 327 328 329 333 290 261 238 221 222 225 234 232 233 215 232 228 223 230 241 253 263 270 272 271 273 276 276 273 279 289 294 299 295
348 344 342 339 337 335 333 330 325 320 318 318 317 319 325 316 256 76 129 112 180 230 236 235 237 236 232 234 231 242 240 248 260 265 273 273 277 283 268 272 279 289 285 286 289
346 340 336 335 332 329 327 325 321 317 314 311 311 313 323 240 245 303 281 288 287 231 225 223 222 226 236 232 241 242 245 252 255 261 267 275 277 276 272 270 280 285 284 279 273
339 337 337 334 330 324 322 319 317 315 311 305 304 294 266 264 266 269 271 267 255 262 226 229 234 231 240 240 240 250 256 256 261 260 266 271 270 264 263 260 266 279 275 272 274
344 341 335 332 327 324 318 314 310 307 301 298 286 271 268 259 276 279 270 266 261 261 262 246 241 248 242 249 245 255 258 261 260 265 264 265 267 263 266 266 272 272 270 264 264
346 341 335 330 327 322 318 313 306 298 291 289 269 247 259 267 266 257 255 255 253 249 252 267 267 251 248 263 252 249 253 256 252 252 252 254 259 264 275 270 268 268 260 263 269
337 331 330 326 323 319 319 316 306 300 277 261 221 219 263 228 238 256 248 255 255 244 239 245 257 251 236 241 252 238 245 240 253 251 252 248 258 255 261 268 264 266 265 274 267
338 336 334 331 324 323 321 310 295 279 239 221 243 220 242 260 224 277 248 243 251 242 223 219 225 234 232 221 228 228 239 245 255 253 243 243 256 263 265 264 271 273 258 252 274
342 340 337 332 326 325 325 316 258 215 218 262 290 223 292 249 257 267 276 251 243 236 222 203 208 218 219 218 235 242 246 247 250 250 237 255 270 263 257 262 264 267 264 261 267
342 340 337 333 332 323 299 321 335 313 294 280 268 260 259 268 273 258 253 243 231 229 219 217 218 222 221 230 228 242 249 249 258 258 256 258 262 268 261 263 262 268 271 267 266
340 336 333 328 325 299 318 308 317 311 276 280 266 256 248 231 244 244 235 229 240 224 226 221 226 227 226 230 232 231 236 245 254 262 262 267 270 264 264 264 270 265 270 272 265
340 334 329 325 306 327 300 348 304 334 281 265 195 209 185 230 239 229 246 230 229 237 235 234 238 231 226 231 227 235 228 241 253 260 256 249 266 258 263 264 259 264 264 258 259
341 333 322 317 309 313 331 316 325 326 278 95 124 109 229 222 72 113 246 217 240 237 230 241 229 232 240 226 228 243 236 236 238 248 263 255 259 270 270 267 269 265 258 258 259
340 333 337 3 240 300 314 312 285 239 255 22 41 341 264 216 255 247 253 216 255 241 252 244 247 235 232 243 228 238 235 241 237 240 248 246 252 263 266 269 268 263 254 249 239
344 345 356 325 329 321 308 287 255 262 341 22 338 317 303 293 278 216 262 272 243 214 238 243 247 247 242 220 235 224 222 221 228 228 242 238 243 261 279 276 271 275 249 261 89
345 328 312 329 316 309 301 261 265 352 1 342 337 309 287 283 276 260 251 253 250 286 287 226 227 233 232 227 214 223 212 210 211 216 235 224 243 261 250 266 285 238 246 145 173
338 260 273 348 341 313 284 273 350 354 338 323 317 306 289 284 243 271 260 279 334 14 290 291 236 224 228 223 237 211 217 217 240 238 249 239 216 233 251 252 242 222 193 150 160
325 289 333 340 321 277 274 294 339 356 339 316 308 289 317 316 263 262 270 126 280 277 252 285 277 222 222 217 238 232 210 207 222 243 234 245 216 242 172 206 180 177 178 155 154
286 288 57 347 297 283 295 312 335 336 320 319 313 312 310 318 306 285 253 151 212 290 260 279 264 257 215 207 214 216 211 212 218 227 230 237 240 201 182 214 180 177 158 153 163
284 284 43 327 307 246 292 335 309 301 303 305 322 296 305 312 295 289 279 308 209 296 293 261 289 257 225 218 215 215 214 204 220 213 234 254 158 88 185 200 188 169 130 154 162
300 259 146 318 340 324 324 312 303 328 317 310 303 313 316 311 297 286 340 37 336 317 315 3 237 253 257 249 196 220 209 205 219 222 210 227 153 161 159 125 164 127 146 153 156
293 296 128 39 334 305 324 310 319 331 323 316 305 318 297 311 310 275 335 107 325 275 272 295 260 256 247 243 197 213 203 206 201 217 197 225 120 174 156 143 148 125 145 154 160
305 29 8 301 327 323 301 288 302 335 294 304 301 296 289 316 314 339 325 302 329 256 249 261 247 242 271 294 301 210 206 198 194 206 201 197 193 164 125 104 105 135 156 158 164
331 342 342 298 284 300 308 305 329 330 325 311 323 318 311 298 311 309 304 306 276 328 245 262 273 253 277 274 281 209 213 202 196 199 222 183 193 164 130 129 129 130 171 174 172
346 295 294 292 280 302 301 321 311 312 313 293 301 307 312 315 320 308 301 288 272 288 289 296 280 230 237 257 260 212 202 196 199 195 213 192 196 204 153 142 125 75 113 188 180